Simultaneous Nadir Overpasses (SNOs) Predictions

Prediction of SNOs between NOAA-19 and NPP Satellite Orbit:

Table of predicted SNOs for the next 14.0 days since TLE Epoch: 2/11/2017
Index Date (NOAA-19) Time (NOAA-19) Lat,Lon (NOAA-19) SZA (NOAA-19 ) Date (NPP) Time (NPP) Lat,Lon (NPP) SZA (NPP ) Distance(km) Time Diff (sec)
1 02/17/2017 18:13:28 80.90,-144.60 96.35 02/17/2017 18:14:37 80.89,-144.66 96.32 1.26 69
2 02/17/2017 19:04:27 -80.90, 22.65 83.67 02/17/2017 19:05:22 -80.90, 22.53 83.68 2.11 55
3 02/17/2017 19:55:30 80.90,-170.20 96.34 02/17/2017 19:56:07 80.90,-170.09 96.30 1.92 37
4 02/17/2017 20:46:29 -80.90, -2.95 83.68 02/17/2017 20:46:52 -80.90, -2.89 83.70 1.27 23
5 02/17/2017 21:37:31 80.90, 164.57 96.28 02/17/2017 21:37:37 80.90, 164.49 96.29 1.57 6
6 02/17/2017
